sat.trackr.live / text

‹ back to catalog

STARLINK-1771

NORAD 46384 · 2020-062BM

PAYLOAD ACTIVE UNKNOWN

§ Identity

Operator
Country
US
Launch date
2020-09-03
Launch site
AFETR
Launch vehicle
Mass (kg)
RCS (m²)

Purposes: comms

External: N2YO · Heavens-Above · Gunter

§ Orbital elements

Epoch: 2026-05-25T06:00:02.000160Z

Period
92.24 min
Inclination
53.0381°
Eccentricity
0.0000854
Mean motion
15.61175112 rev/d
Perigee alt
383.7 km
Apogee alt
384.8 km
Semi-major
6,762.4 km
B*
-2.4599e-4
RAAN
337.3941°
Arg perigee
77.4914°
Mean anomaly
70.3915°
Rev number
588

§ Raw data

STARLINK-17711 46384U 20062BM  26145.25002315 -.00021650  00000+0 -24599-3 0  99982 46384  53.0381 337.3941 0000854  77.4914  70.3915 15.61175112  5882

JSON: /api/v1/satellites/46384 · /tle

For live sub-satellite position, see the globe view (requires WebGL).

§ Visibility from observer

Set your observer location to see the next 7 days of passes ≥ 10°. The values pass through the URL so the page stays shareable.

No JS? Fill the form by hand. The geolocation button needs JavaScript.